Regional Weather Roundup
Issued by NWS

Home | Current Version | Previous Version | Text Only | Print | Product List | Glossary Off
Versions: 1 2 3 4 5 6 7 8 9 10 11 12 13 14 15 16 17 18 19 20 21 22 23 24 25 26 27 28 29 30 31 32 33 34 35 36 37 38 39 40 41 42 43 44 45 46 47 48 49 50

000
ASUS43 KIND 251309
RWRIN

WEATHER ROUNDUP FOR INDIANA
NATIONAL WEATHER SERVICE INDIANAPOLIS IN
900 AM EDT THU AUG 25 2016

NOTE: "FAIR" INDICATES FEW OR NO CLOUDS BELOW 12,000 FEET WITH NO
SIGNIFICANT WEATHER AND/OR OBSTRUCTIONS TO VISIBILITY.

* - STATION DOES NOT REPORT WEATHER SUCH AS PRECIPITATION OR FOG.

+ - STATION NOT QUALITY CONTROLLED BY THE NATIONAL WEATHER SERVICE.
    USE DATA WITH CAUTION...ESPECIALLY DEWPOINT AND RELATIVE
    HUMIDITY OBSERVATIONS.

INZ001>003-010>013-019-020-251400-
NORTHWEST INDIANA

CITY           SKY/WX    TMP DP  RH WIND       PRES   REMARKS
GARY /AIRPORT/ PTSUNNY   73  72  94 S3        30.00R
KNOX *+        MOSUNNY   70  59  68 CALM      30.02R
LA PORTE +     MOSUNNY  N/A N/A N/A S6        30.02S
MICHIGAN CITY+ CLOUDY    72  72 100 MISG      30.00F
MONTICELLO +   MOSUNNY   71  67  88 SW6       30.03R
RENSSELAER +   CLOUDY    70  70 100 CALM      30.04R
VALPARAISO     MOSUNNY   70  68  93 SW8       30.02S

$$

LMZ046-743>745-251400-
SOUTHERN LAKE MICHIGAN

STATION/POSITION TIME  TEMP    WIND        PRES    WAVE
                       AIR SEA DIR/SP/G            HT
                 (UTC) (F)     (DEG/KT/KT) (MB)    (FT)
BURNS HARBOR     1214   72     200/ 11/ 17 1016.3R
MICHIGAN CITY    1200   71     190/ 13/ 15   N/A
5NW MICH CITY    1200   72 74  220/ 12/ 16   N/A     1

$$

INZ004-005-014>016-021>024-251400-
NORTH CENTRAL INDIANA

CITY           SKY/WX    TMP DP  RH WIND       PRES   REMARKS
ELKHART        CLOUDY    72  68  88 SW6       30.02R
GOSHEN         CLOUDY    72  68  87 SW6       30.01R
LOGANSPORT +   PTSUNNY   72  70  94 SW6       30.04R
PERU/GRISSOM   PTSUNNY   72  72 100 S8        30.01S
ROCHESTER +    MOSUNNY   73  73 100 SW8       30.03R
SOUTH BEND     CLOUDY    70  69  97 SW8       30.01R
WARSAW +       CLOUDY    72  72 100 CALM      30.02R

$$

INZ006>009-017-018-025>027-251400-
NORTHEAST INDIANA

CITY           SKY/WX    TMP DP  RH WIND       PRES   REMARKS
ANGOLA *+      SUNNY     73  66  78 SW3       30.01S
AUBURN +       CLOUDY    70  68  94 CALM      30.02F FOG
FORT WAYNE     CLOUDY    72  69  90 S7        30.02F
HUNTINGTON +   PTSUNNY  N/A N/A N/A S5        30.02S

$$

INZ028-029-035-036-043>045-051>053-251400-
WEST CENTRAL INDIANA

CITY           SKY/WX    TMP DP  RH WIND       PRES   REMARKS
CRAWFORDSVL +  MOSUNNY   73  73 100 S6        30.05S
GREENCASTLE +  SUNNY     77  77 100 S5        30.07S
LAFAYETTE      CLOUDY    70  70 100 W5        30.04R
TERRE HAUTE    SUNNY     79  74  84 S8        30.06S

$$

INZ030>032-037>040-046>048-054>057-064-065-251400-
CENTRAL INDIANA

CITY           SKY/WX    TMP DP  RH WIND       PRES   REMARKS
ANDERSON       MOSUNNY   75  75 100 S6        30.05
COLUMBUS       CLOUDY    75  75 100 SW5       30.08R
INDIANAPOLIS   MOSUNNY   78  73  84 SW8       30.06R
-EAGLE CREEK   SUNNY     78  73  84 SW6       30.05S
MARION +       CLOUDY    71  71 100 S6        30.04S
MT COMFORT *+  SUNNY     77  73  88 S3        30.07S
SHELBYVILLE    SUNNY     79  74  84 S7        30.07S
ZIONSVILLE +   SUNNY     74  72  93 S8        30.06S

$$

INZ033-034-041-042-049-050-058-059-251400-
EAST CENTRAL INDIANA

CITY           SKY/WX    TMP DP  RH WIND       PRES   REMARKS
MUNCIE         CLOUDY    77  73  87 SW7       30.04F

$$

INZ060-061-067>069-081>083-085>088-251400-
SOUTHWEST INDIANA

CITY           SKY/WX    TMP DP  RH WIND       PRES   REMARKS
EVANSVILLE     SUNNY     79  74  84 SW8       30.11R
HUNTINGBURG *+ SUNNY     79  73  83 SW7       30.11R
WASHINGTON +   SUNNY     78  77  96 MISG      30.08S

$$

INZ062-063-066-070>080-084-089>092-251400-
SOUTH CENTRAL AND SOUTHEAST INDIANA

CITY           SKY/WX    TMP DP  RH WIND       PRES   REMARKS
BLOOMINGTON    PTSUNNY   78  73  84 SW8       30.09R
MADISON *+     SUNNY     77  73  88 S7        30.12S

$$





USA.gov is the U.S. government's official web portal to all federal, state and local government web resources and services.